User: anonymous   Login
Location: Elbart
(49.6135°N, 11.9134°E)
Time: 02:39:23
(UTC+00:00)
Language:

Cosmos 2151 - Orbit

View from above orbital plane
View from above orbital plane
View from above satellite
View from above satellite

Ground track
Ground track

The orbit data is extracted from the following two-line orbital elements,

1 21422U 91042A   20192.45992689  .00000086  00000-0  59294-5 0  9991
2 21422  82.5004 261.0375 0014973 150.7865 209.4195 14.92140062575390
Epoch (UTC): 10 July 2020 11:02:17
Eccentricity: 0.0014973
inclination: 82.5004°
perigee height: 581 km
apogee height: 602 km
right ascension of ascending node: 261.0375°
argument of perigee: 150.7865°
revolutions per day: 14.92140062
mean anomaly at epoch: 209.4195°
orbit number at epoch: 57539

The dashed part of the orbit path shows where the satellite is in the earth's shadow,  

DLR